Weather History for Brownsville, TX

Change the Weather History Date:

Sunday, December 9, 2012

  Actual Average Record
Temperature  
Mean Temperature 77 °F 63 °F  
Max Temperature 83 °F 73 °F 88 °F (1919)
Min Temperature 71 °F 54 °F 31 °F (1978)
Degree Days  
Heating Degree Days 0 5  
Month to date heating degree days 0 37  
Since 1 July heating degree days 3 91  
Cooling Degree Days 12 3  
Month to date cooling degree days 81 29  
Year to date cooling degree days 4741 3974  
Growing Degree Days 27 (Base 50)    
Moisture  
Dew Point 70 °F    
Average Humidity 82    
Maximum Humidity 100    
Minimum Humidity 63    
Precipitation  
Precipitation 0.00 in 0.04 in 2.54 in (1982)
Month to date precipitation 0.30 0.38  
Year to date precipitation 21.38 26.67  
Sea Level Pressure  
Sea Level Pressure 29.83 in    
Wind  
Wind Speed 11 mph (SSE)    
Max Wind Speed 24 mph    
Max Gust Speed 29 mph    
Visibility 8 miles    
Events      
T = Trace of Precipitation, MM = Missing Value Source: NWS Daily Summary

Daily Weather History Graph

Daily Weather History Graph

Search for Another Location

Airport:

Trip Planner

Search our weather history database for the weather conditions in past years. The results will help you decide how hot, cold, wet, or windy it might be!

Date:

Astronomy

Dec. 09, 2012 Rise Set
Actual Time 7:05 AM CST 5:39 PM CST
Civil Twilight 6:40 AM CST 6:04 PM CST
Nautical Twilight 6:11 AM CST 6:32 PM CST
Astronomical Twilight 5:43 AM CST 7:01 PM CST
Moon 2:57 AM CST (12/9) 2:32 PM CST (12/9)
Length of Visible Light 11h 23m
Length of Day
10h 33m
Waning Crescent, 18% of the Moon is Illuminated
Dec 9
Waning Crescent
Dec 13
New
Dec 19
First Quarter
Dec 28
Full
Jan 4
Last Quarter

Hourly Weather History & Observations

Time (CST) Temp. Heat Index Dew Point Humidity Pressure Visibility Wind Dir Wind Speed Gust Speed Precip Events Conditions
12:53 AM 72.0 °F - 70.0 °F 93% 29.86 in 7.0 mi SSE 6.9 mph - N/A   Mostly Cloudy
1:53 AM 72.0 °F - 70.0 °F 93% 29.84 in 6.0 mi SSE 6.9 mph - N/A   Scattered Clouds
2:18 AM 71.6 °F - 69.8 °F 94% 29.84 in 5.0 mi SSE 6.9 mph - N/A   Mostly Cloudy
2:53 AM 72.0 °F - 71.1 °F 97% 29.83 in 6.0 mi SSE 6.9 mph - N/A   Scattered Clouds
3:53 AM 71.1 °F - 70.0 °F 96% 29.83 in 5.0 mi SSE 4.6 mph - N/A   Scattered Clouds
4:01 AM 71.6 °F - 69.8 °F 94% 29.83 in 5.0 mi SSE 5.8 mph - N/A   Mostly Cloudy
4:53 AM 73.0 °F - 71.1 °F 93% 29.83 in 5.0 mi SSE 8.1 mph - N/A   Scattered Clouds
5:53 AM 73.0 °F - 71.1 °F 93% 29.84 in 5.0 mi SSE 8.1 mph - N/A   Mostly Cloudy
6:53 AM 72.0 °F - 71.1 °F 97% 29.86 in 5.0 mi SSE 6.9 mph - N/A   Partly Cloudy
7:53 AM 72.0 °F - 71.1 °F 97% 29.86 in 5.0 mi SSE 8.1 mph - N/A   Clear
8:53 AM 75.9 °F - 72.0 °F 87% 29.87 in 8.0 mi SSE 12.7 mph - N/A   Clear
9:50 AM 80.6 °F 83.9 °F 69.8 °F 70% 29.90 in 10.0 mi SSE 23.0 mph 26.5 mph N/A   Mostly Cloudy
9:53 AM 80.1 °F 82.9 °F 69.1 °F 69% 29.90 in 10.0 mi South 20.7 mph 27.6 mph N/A   Mostly Cloudy
10:21 AM 80.6 °F 83.9 °F 69.8 °F 70% 29.89 in 9.0 mi SSE 18.4 mph 24.2 mph N/A   Mostly Cloudy
10:53 AM 81.0 °F 84.1 °F 69.1 °F 67% 29.89 in 9.0 mi South 17.3 mph 23.0 mph N/A   Mostly Cloudy
11:53 AM 82.0 °F 85.5 °F 69.1 °F 65% 29.87 in 10.0 mi South 18.4 mph 26.5 mph N/A   Overcast
12:49 PM 82.4 °F 86.3 °F 69.8 °F 66% 29.83 in 9.0 mi SSE 18.4 mph 24.2 mph N/A   Overcast
12:53 PM 82.0 °F 85.5 °F 69.1 °F 65% 29.83 in 9.0 mi SSE 17.3 mph 24.2 mph N/A   Mostly Cloudy
1:01 PM 82.4 °F 86.3 °F 69.8 °F 66% 29.82 in 10.0 mi SSE 20.7 mph - N/A   Mostly Cloudy
1:53 PM 82.0 °F 84.9 °F 68.0 °F 62% 29.80 in 10.0 mi South 18.4 mph 26.5 mph N/A   Overcast
2:53 PM 81.0 °F 83.8 °F 68.0 °F 65% 29.79 in 10.0 mi SSE 18.4 mph - N/A   Overcast
3:53 PM 80.1 °F 82.7 °F 68.0 °F 67% 29.79 in 10.0 mi South 13.8 mph - N/A   Overcast
4:53 PM 79.0 °F - 69.1 °F 72% 29.78 in 10.0 mi SSE 15.0 mph - N/A   Clear
5:53 PM 75.9 °F - 70.0 °F 82% 29.78 in 10.0 mi SSE 10.4 mph - N/A   Clear
6:53 PM 75.0 °F - 71.1 °F 87% 29.80 in 10.0 mi SSE 8.1 mph - N/A   Clear
7:53 PM 75.0 °F - 72.0 °F 90% 29.81 in 9.0 mi SSE 6.9 mph - N/A   Clear
8:53 PM 75.0 °F - 72.0 °F 90% 29.81 in 9.0 mi SSE 11.5 mph - N/A   Clear
9:53 PM 75.0 °F - 72.0 °F 90% 29.82 in 9.0 mi SSE 8.1 mph - N/A   Partly Cloudy
10:53 PM 75.0 °F - 72.0 °F 90% 29.83 in 9.0 mi South 11.5 mph - N/A   Clear
11:53 PM 75.0 °F - 72.0 °F 90% 29.82 in 9.0 mi South 9.2 mph - N/A   Clear